[[{"header":{"parameterUnit":"m.s-1","parameterCategory":2,"la1":30.2991,"la2":30.254,"lo1":-89.0895,"lo2":-89.0444,"dy":0.0017,"dx":0.0017,"nx":28,"ny":28,"refTime":"2025-03-25T21:00:00:Z","depth":"0","parameterNumber":2,"parameterNumberName":"U-component_of_CURRENTS"},"data":[0,0,0,0,0,0,0,0,0,0,0,0,0,0,0,0,0,0,0,0,0,0,0,0,0,0,0,0,0,0,0,0,0,0,0,0,0,0,0,0,0,0,0,0,0,0,0,0,0,0,0,0,0,0,0,0,0,0,0.1961,0.1959,0,0.1859,0.1858,0.1857,0.1799,0.1799,0.1799,0.1798,0.1769,0.1769,0.1769,0,0,0,0,0,0,0,0,0,0,0,0,0,0.2109,0.2106,0.1961,0.1959,0.1958,0.1859,0.1858,0.1857,0.1799,0.1799,0.1799,0.1798,0.177,0.1769,0.1769,0,0,0,0,0,0,0,0,0,0,0,0,0,0.2031,0.2106,0.1961,0.1916,0.1911,0.1859,0.1858,0.1856,0.18,0.1799,0.1798,0.1798,0.177,0.1769,0.1768,0.1775,0,0,0.1767,0.1766,0,0,0,0,0,0,0,0,0.2036,0.2026,0.1924,0.1919,0.1913,0.184,0.1899,0.1832,0.18,0.1844,0.1798,0.1798,0.1799,0.1796,0.1779,0.1774,0.1773,0.1766,0.1766,0.1766,0.1766,0,0,0,0,0,0,0,0.2041,0.203,0.1922,0.1923,0.1916,0.1902,0.189,0.1886,0.1829,0.184,0.1835,0.1821,0.1797,0.178,0.1779,0.1772,0.1766,0.1766,0.1765,0.1765,0.1747,0.1747,0,0,0,0,0,0,0.205,0.2035,0.1926,0.1919,0.1972,0.19,0.1887,0.1865,0.1827,0.1819,0.1821,0.1818,0.1782,0.1779,0.1777,0.1786,0.1766,0.1765,0.1765,0.1747,0.1747,0.1747,0,0,0,0,0,0,0.2053,0.2041,0.193,0.1974,0.1959,0.1897,0.1874,0.1864,0.185,0.1812,0.1806,0.1818,0.1781,0.1778,0.1776,0.1784,0.1765,0.1764,0.1747,0.1747,0.1747,0.1801,0,0,0,0,0,0,0.2058,0.2043,0.2045,0.1974,0.1956,0.1916,0.1874,0.1862,0.184,0.1836,0.1807,0.1803,0.178,0.1777,0.1775,0.1783,0.1764,0.1748,0.1747,0.1747,0.18,0.1803,0.1806,0,0,0,0,0,0.2064,0.2072,0.2046,0.2033,0.1956,0.1916,0.1907,0.1863,0.1841,0.1847,0.1818,0.1804,0.1774,0.1777,0.1775,0.1783,0.1748,0.1747,0.1747,0.1798,0.1802,0.1806,0,0,0,0,0,0,0.2144,0.2064,0.2034,0.2019,0.1977,0.1906,0.1911,0.1871,0.1851,0.1853,0.1811,0.1806,0.1804,0.1786,0.179,0.1774,0.1756,0.1755,0.1795,0.1799,0.1802,0.1872,0.1763,0,0,0,0,0,0.216,0.2139,0.2067,0.2056,0.2041,0.1977,0.1959,0.1925,0.1888,0.1877,0.1846,0.1819,0.18,0.1795,0.1778,0.178,0.1811,0.1779,0.1782,0.1785,0.1839,0.1902,0.1918,0.1747,0.1747,0.1747,0,0,0.2181,0.2141,0.2125,0.2072,0.2038,0.2021,0.1966,0.1947,0.1937,0.1882,0.1873,0.1836,0.1803,0.1796,0.1793,0.1784,0.1838,0.1784,0.1788,0.1841,0.1904,0.1921,0.1937,0.1746,0.1746,0.1746,0,0,0.2213,0.2188,0.2176,0.2151,0.2106,0.2071,0.2068,0.2002,0.1985,0.1968,0.1918,0.1902,0.1863,0.1844,0.183,0.1847,0.1853,0.1815,0.1894,0.1953,0.1969,0.1984,0.2006,0.2022,0.1817,0.1817,0.1817,0,0.2244,0.2212,0.2172,0.2164,0.2147,0.2096,0.2087,0.2071,0.2011,0.2003,0.198,0.1927,0.1898,0.1895,0.1897,0.1861,0.1885,0.1881,0.1963,0.1979,0.1993,0.2012,0.203,0.182,0.182,0.1819,0.1819,0,0.2251,0.2241,0.2244,0.2207,0.2197,0.2187,0.2151,0.2144,0.2114,0.2083,0.2074,0.2035,0.2006,0.1977,0.195,0.201,0.1987,0.1962,0.1965,0.2015,0.2029,0.2047,0.1824,0.1823,0.1822,0.1821,0,0,0.226,0.2246,0.2244,0.2238,0.2216,0.22,0.2215,0.2194,0.2195,0.2172,0.2171,0.2151,0.2128,0.2114,0.2062,0.2119,0.2216,0.2097,0.2099,0.2141,0.2335,0.2233,0.2242,0.221,0.2214,0.2218,0.229,0,0.2267,0.2265,0.2254,0.2258,0.2253,0.2237,0.2247,0.2238,0.2225,0.222,0.2214,0.2194,0.2177,0.2149,0.2216,0.22,0.2273,0.2199,0.2264,0.2267,0.219,0.2264,0.2064,0.2107,0.2308,0.231,0.2313,0,0.2258,0.2259,0.2264,0.2269,0.2265,0.2267,0.2269,0.227,0.228,0.2272,0.2289,0.2266,0.2314,0.2296,0.2394,0.2346,0.238,0.239,0.2391,0.231,0.2201,0.2096,0.2131,0.1973,0.234,0.2338,0.2336,0,0.2256,0.2262,0.2266,0.2267,0.227,0.2274,0.2273,0.2281,0.2277,0.2303,0.2298,0.2355,0.2351,0.2444,0.2457,0.2442,0.2568,0.2529,0.2481,0.2471,0.2326,0.2297,0.2245,0.2667,0.2667,0.2666,0.2666,0,0.2251,0.2252,0.2266,0.2265,0.2268,0.2275,0.2275,0.2284,0.2294,0.2292,0.2322,0.2329,0.2402,0.245,0.2501,0.2535,0.2605,0.2541,0.2509,0.2329,0.23,0.2174,0.2147,0.2669,0.2668,0.2668,0.2667,0,0.2231,0.2245,0.2248,0.2261,0.2262,0.2261,0.2255,0.2254,0.2274,0.2275,0.2283,0.2324,0.2383,0.2436,0.2544,0.2548,0.2496,0.2606,0.2368,0.2308,0.21,0.2084,0.2041,0.2002,0.2578,0.2576,0.2574,0,0.2209,0.2214,0.2233,0.223,0.2229,0.2227,0.222,0.2238,0.2233,0.2263,0.2261,0.231,0.2329,0.242,0.2425,0.2482,0.2426,0.2342,0.2296,0.21,0.206,0.1995,0.1963,0.2104,0.2099,0.2095,0.2092,0,0.2165,0.2182,0.2187,0.2186,0.2181,0.217,0.2164,0.2159,0.218,0.2182,0.2194,0.2216,0.2256,0.2202,0.2246,0.2258,0.2147,0.2257,0.2128,0.1775,0.1633,0.1571,0.2022,0.2054,0.2058,0.2061,0.2063,0.2064,0.2125,0.2121,0.2133,0.2125,0.2121,0.2099,0.2059,0.2066,0.2049,0.2021,0.2096,0.2069,0.1987,0.2001,0.1996,0.1762,0.1911,0.1674,0.1698,0.167,0.1558,0.1918,0.1864,0.1867,0.1869,0.1871,0.1873,0,0.2065,0.2068,0.2061,0.2045,0.201,0.2029,0.2001,0.1943,0.1896,0.1911,0.1897,0.1748,0.1613,0.1531,0.1294,0.1196,0.1163,0.1137,0.0988,0.1014,0.137,0.1267,0.0988,0.0988,0.0989,0.0989,0.0989,0.0989,0.2032,0.2011,0.201,0.1935,0.1913,0.1821,0.1787,0.1724,0.1701,0.1577,0.1485,0.1456,0.1236,0.0908,0.0653,0.0648,0.0603,0.0533,0.065,0.0833,0.0883,0.0931,0.0823,0.0456,0.0456,0.0169,0.0166,0.0165]},{"header":{"parameterUnit":"m.s-1","parameterCategory":2,"la1":30.2991,"la2":30.254,"lo1":-89.0895,"lo2":-89.0444,"dy":0.0017,"dx":0.0017,"nx":28,"ny":28,"refTime":"2025-03-25T21:00:00:Z","depth":"0","parameterNumber":3,"parameterNumberName":"V-component_of_CURRENTS"},"data":[0,0,0,0,0,0,0,0,0,0,0,0,0,0,0,0,0,0,0,0,0,0,0,0,0,0,0,0,0,0,0,0,0,0,0,0,0,0,0,0,0,0,0,0,0,0,0,0,0,0,0,0,0,0,0,0,0,0,-0.0356,-0.0356,0,-0.0405,-0.0406,-0.0407,-0.0481,-0.0482,-0.0483,-0.0484,-0.0639,-0.0642,-0.0645,0,0,0,0,0,0,0,0,0,0,0,0,0,-0.0388,-0.0387,-0.0356,-0.0356,-0.0356,-0.0405,-0.0406,-0.0407,-0.0481,-0.0482,-0.0483,-0.0484,-0.0638,-0.0642,-0.0646,0,0,0,0,0,0,0,0,0,0,0,0,0,-0.0404,-0.0387,-0.0356,-0.0395,-0.0398,-0.0404,-0.0406,-0.0407,-0.0481,-0.0482,-0.0483,-0.0484,-0.0636,-0.0641,-0.0646,-0.0653,0,0,-0.0662,-0.0664,0,0,0,0,0,0,0,0,-0.0403,-0.0403,-0.0389,-0.0392,-0.0396,-0.0433,-0.0474,-0.0493,-0.0481,-0.0455,-0.0484,-0.0485,-0.0575,-0.0585,-0.0598,-0.066,-0.0667,-0.0662,-0.0665,-0.0667,-0.0669,0,0,0,0,0,0,0,-0.0402,-0.0402,-0.0381,-0.0389,-0.0393,-0.043,-0.0434,-0.0478,-0.0514,-0.0458,-0.0462,-0.0458,-0.0579,-0.0593,-0.0603,-0.0669,-0.0662,-0.0666,-0.067,-0.0672,-0.0766,-0.0765,0,0,0,0,0,0,-0.038,-0.04,-0.0379,-0.0382,-0.0396,-0.0428,-0.0433,-0.0425,-0.0512,-0.0523,-0.0457,-0.0461,-0.0584,-0.0597,-0.0609,-0.0609,-0.0667,-0.0672,-0.0675,-0.0766,-0.0766,-0.0765,0,0,0,0,0,0,-0.038,-0.0377,-0.0377,-0.0389,-0.039,-0.0425,-0.0416,-0.0425,-0.0438,-0.0509,-0.0524,-0.046,-0.0585,-0.0601,-0.0648,-0.0616,-0.0674,-0.0679,-0.0767,-0.0766,-0.0765,-0.0618,0,0,0,0,0,0,-0.0381,-0.0377,-0.0371,-0.0386,-0.0389,-0.0379,-0.0415,-0.0425,-0.0431,-0.0437,-0.0516,-0.0532,-0.0588,-0.064,-0.0653,-0.0624,-0.0683,-0.0768,-0.0767,-0.0766,-0.0623,-0.0612,-0.0602,0,0,0,0,0,-0.0382,-0.0371,-0.037,-0.0368,-0.0376,-0.0378,-0.0383,-0.0417,-0.0429,-0.0433,-0.0486,-0.053,-0.0643,-0.0644,-0.0659,-0.0631,-0.0768,-0.0767,-0.0766,-0.0628,-0.0614,-0.0602,0,0,0,0,0,0,-0.0399,-0.0377,-0.0377,-0.0365,-0.0366,-0.0388,-0.0394,-0.0405,-0.0447,-0.0456,-0.0526,-0.0545,-0.0571,-0.0627,-0.0626,-0.0658,-0.0712,-0.0713,-0.0602,-0.0589,-0.0579,-0.0553,-0.0687,0,0,0,0,0,-0.039,-0.0369,-0.0363,-0.0354,-0.0349,-0.0364,-0.037,-0.0383,-0.0415,-0.0434,-0.0483,-0.0539,-0.0576,-0.0604,-0.0653,-0.0672,-0.0669,-0.0665,-0.0655,-0.0645,-0.0636,-0.0571,-0.0551,-0.0761,-0.0761,-0.0761,0,0,-0.0395,-0.0379,-0.037,-0.0354,-0.0359,-0.0347,-0.0373,-0.037,-0.0364,-0.0444,-0.0463,-0.0504,-0.0574,-0.0592,-0.0609,-0.0637,-0.0587,-0.0644,-0.0635,-0.0631,-0.0567,-0.0546,-0.0527,-0.076,-0.0761,-0.0761,0,0,-0.039,-0.0376,-0.0355,-0.0345,-0.0332,-0.0335,-0.0325,-0.0334,-0.0344,-0.0357,-0.0406,-0.0419,-0.0497,-0.0519,-0.0545,-0.0507,-0.0529,-0.0533,-0.0459,-0.0394,-0.0375,-0.0358,-0.0323,-0.0304,-0.0529,-0.0529,-0.0529,0,-0.04,-0.0368,-0.0354,-0.0332,-0.0321,-0.0321,-0.0303,-0.0305,-0.033,-0.0326,-0.0353,-0.04,-0.0453,-0.0448,-0.0438,-0.0477,-0.0458,-0.0493,-0.0374,-0.0357,-0.0342,-0.0311,-0.0292,-0.0522,-0.0523,-0.0523,-0.0524,0,-0.0374,-0.0352,-0.034,-0.0302,-0.0291,-0.0275,-0.0261,-0.0252,-0.0254,-0.0254,-0.0244,-0.029,-0.0317,-0.0326,-0.0375,-0.0303,-0.0329,-0.0357,-0.039,-0.0311,-0.0285,-0.0268,-0.0511,-0.0514,-0.0516,-0.0518,0,0,-0.0386,-0.0332,-0.0327,-0.0303,-0.0271,-0.0256,-0.0229,-0.0201,-0.0172,-0.0175,-0.0134,-0.0167,-0.017,-0.0199,-0.0236,-0.0184,-0.0061,-0.0222,-0.0222,-0.0161,0.0075,0.0054,0.0069,-0.0054,-0.005,-0.0047,0.0054,0,-0.0372,-0.0323,-0.03,-0.0258,-0.023,-0.0211,-0.0184,-0.0156,-0.0137,-0.0099,-0.0092,-0.0082,-0.0128,-0.0126,-0.0071,-0.0068,-0.001,-0.0087,-0.0036,-0.0035,-0.004,0.0091,0.0107,0.02,0.0071,0.0074,0.0076,0,-0.0349,-0.0316,-0.0272,-0.0218,-0.0204,-0.0181,-0.0121,-0.0098,-0.0041,-0.0025,0.0016,0.0014,0.0077,0.0032,0.0128,0.0084,0.0092,0.0103,0.0106,0.0047,-0.0023,0.0094,0.0235,0.019,0.0102,0.01,0.0098,0,-0.0344,-0.0293,-0.0255,-0.0237,-0.018,-0.0156,-0.0128,-0.0075,-0.0039,0.0031,0.0073,0.0136,0.0174,0.0226,0.0234,0.0198,0.0346,0.0293,0.0283,0.0279,0.0281,0.0272,0.0408,0.0381,0.0381,0.038,0.038,0,-0.0323,-0.0291,-0.0249,-0.0224,-0.0175,-0.0144,-0.0084,-0.0049,0.002,0.0088,0.0112,0.0186,0.0232,0.0303,0.0302,0.0361,0.0405,0.0333,0.0328,0.0328,0.0323,0.0267,0.023,0.0384,0.0383,0.0383,0.0382,0,-0.031,-0.0285,-0.0238,-0.0185,-0.0168,-0.0131,-0.0062,-0.0011,0.0042,0.014,0.0168,0.0259,0.036,0.0389,0.0475,0.0447,0.0492,0.0489,0.0469,0.046,0.0392,0.0362,0.0511,0.05,0.0518,0.0519,0.0519,0,-0.0289,-0.0267,-0.0215,-0.0186,-0.016,-0.0107,-0.0061,-0.0004,0.0057,0.0189,0.0248,0.0361,0.0465,0.0573,0.057,0.0601,0.054,0.058,0.0512,0.0434,0.0397,0.0392,0.037,0.0572,0.0573,0.0574,0.0574,0,-0.0255,-0.0247,-0.0212,-0.0158,-0.0111,-0.0052,0.0016,0.0068,0.0158,0.0251,0.0394,0.0489,0.0592,0.0672,0.0679,0.0661,0.057,0.059,0.0546,0.0498,0.0471,0.044,0.0426,0.058,0.0579,0.0579,0.0578,0.0578,-0.0234,-0.021,-0.0173,-0.0118,-0.0065,0.0013,0.0079,0.0164,0.0279,0.0446,0.0503,0.0675,0.0728,0.077,0.072,0.0618,0.0626,0.0574,0.0558,0.0571,0.0533,0.0512,0.0626,0.0625,0.0625,0.0625,0.0625,0,-0.0196,-0.0174,-0.013,-0.0059,0.0009,0.0031,0.0144,0.0229,0.0381,0.0539,0.0676,0.0827,0.0855,0.0809,0.0705,0.0615,0.0572,0.0553,0.0557,0.0544,0.057,0.0539,0.0595,0.0595,0.0595,0.0595,0.0595,0.0595,-0.0173,-0.0129,-0.011,-0.0001,0.0052,0.0168,0.0242,0.0368,0.05,0.0715,0.0856,0.0949,0.0911,0.078,0.0621,0.0568,0.0511,0.0525,0.0481,0.0474,0.0474,0.0474,0.0438,0.0473,0.0473,0.0473,0.0472,0.0472]}],[{"header":{"parameterUnit":"m.s-1","parameterCategory":2,"la1":30.2991,"la2":30.254,"lo1":-89.0895,"lo2":-89.0444,"dy":0.0017,"dx":0.0017,"nx":28,"ny":28,"refTime":"2025-03-25T21:00:00:Z","depth":"2","parameterNumber":2,"parameterNumberName":"U-component_of_CURRENTS"},"data":[0,0,0,0,0,0,0,0,0,0,0,0,0,0,0,0,0,0,0,0,0,0,0,0,0,0,0,0,0,0,0,0,0,0,0,0,0,0,0,0,0,0,0,0,0,0,0,0,0,0,0,0,0,0,0,0,0,0,0.1414,0.1414,0,0.1439,0.1439,0.1439,0.1498,0.1499,0.15,0.1501,0.1545,0.1544,0.1544,0,0,0,0,0,0,0,0,0,0,0,0,0,0.14,0.14,0.1414,0.1414,0.1415,0.1439,0.1439,0.1439,0.1497,0.1499,0.15,0.1502,0.1545,0.1544,0.1544,0,0,0,0,0,0,0,0,0,0,0,0,0,0.1413,0.14,0.1414,0.1447,0.145,0.1439,0.1439,0.1439,0.1497,0.1499,0.1501,0.1503,0.1545,0.1544,0.1544,0.1505,0,0,0.1544,0.1544,0,0,0,0,0,0,0,0,0.1412,0.1413,0.1442,0.1445,0.1449,0.1468,0.145,0.1462,0.1496,0.1478,0.1501,0.1504,0.152,0.1522,0.1521,0.1507,0.1509,0.1544,0.1544,0.1544,0.1544,0,0,0,0,0,0,0,0.1411,0.1413,0.1423,0.1442,0.1446,0.1455,0.1459,0.1452,0.1488,0.148,0.1485,0.1488,0.1522,0.1521,0.1522,0.151,0.1544,0.1544,0.1544,0.1544,0.1589,0.159,0,0,0,0,0,0,0.1408,0.1411,0.1422,0.1424,0.1436,0.1454,0.1458,0.1459,0.1487,0.1494,0.1486,0.1491,0.152,0.1522,0.1524,0.1577,0.1544,0.1544,0.1544,0.1588,0.1589,0.1591,0,0,0,0,0,0,0.1408,0.1409,0.1421,0.1419,0.1422,0.1452,0.1452,0.1458,0.1479,0.1492,0.1499,0.1503,0.1521,0.1524,0.156,0.1576,0.1544,0.1544,0.1586,0.1588,0.159,0.162,0,0,0,0,0,0,0.1407,0.1408,0.1417,0.1419,0.1422,0.1437,0.1451,0.1458,0.1477,0.1483,0.1508,0.1513,0.1523,0.156,0.1559,0.1575,0.1544,0.1585,0.1587,0.1589,0.1618,0.1623,0.1627,0,0,0,0,0,0.1407,0.1414,0.1417,0.142,0.143,0.1437,0.144,0.1467,0.1476,0.1491,0.152,0.1513,0.1574,0.1561,0.156,0.1576,0.1584,0.1587,0.1589,0.1616,0.1622,0.1627,0,0,0,0,0,0,0.141,0.1421,0.1425,0.1435,0.1444,0.1448,0.1461,0.147,0.15,0.1516,0.1524,0.1532,0.1567,0.1567,0.1552,0.1598,0.1579,0.1581,0.1599,0.1605,0.161,0.1586,0.1544,0,0,0,0,0,0.1412,0.1422,0.1429,0.1435,0.1441,0.1448,0.1457,0.1477,0.1497,0.1512,0.1527,0.1551,0.1571,0.1588,0.1602,0.1619,0.1625,0.1632,0.1637,0.1641,0.1623,0.1662,0.1669,0.16,0.16,0.16,0,0,0.1402,0.1419,0.1418,0.1437,0.1442,0.1449,0.1459,0.1481,0.1503,0.1509,0.1548,0.1563,0.1579,0.1613,0.1628,0.1621,0.1669,0.1644,0.1648,0.1627,0.1666,0.1673,0.1678,0.1602,0.1601,0.1601,0,0,0.1394,0.1413,0.1417,0.1433,0.146,0.1465,0.1473,0.149,0.1524,0.1554,0.1572,0.1599,0.1623,0.1644,0.1654,0.1688,0.169,0.1698,0.1705,0.1745,0.175,0.1755,0.179,0.1797,0.1705,0.1705,0.1705,0,0.1403,0.1403,0.1419,0.1436,0.1451,0.1469,0.1479,0.1506,0.154,0.1559,0.1579,0.1614,0.1634,0.1663,0.1688,0.1697,0.1719,0.1682,0.175,0.1755,0.1759,0.1793,0.1801,0.1707,0.1706,0.1706,0.1706,0,0.1385,0.1405,0.1411,0.1436,0.1448,0.1471,0.15,0.153,0.1561,0.1577,0.1622,0.1655,0.1671,0.1691,0.1701,0.174,0.1747,0.1749,0.1732,0.1768,0.1802,0.181,0.1709,0.1709,0.1708,0.1708,0,0,0.138,0.1401,0.141,0.1418,0.1464,0.1465,0.151,0.1541,0.1578,0.1606,0.1635,0.1676,0.1683,0.1695,0.1716,0.1752,0.1818,0.1767,0.1768,0.1794,0.191,0.1753,0.1747,0.1839,0.184,0.1841,0.1927,0,0.1379,0.1395,0.1416,0.1429,0.1431,0.1477,0.1508,0.1541,0.16,0.1636,0.1657,0.1701,0.1691,0.1725,0.1747,0.1811,0.1837,0.1794,0.1875,0.1877,0.1727,0.1749,0.1606,0.1655,0.1934,0.1936,0.1937,0,0.1367,0.1379,0.1393,0.1422,0.143,0.1457,0.1519,0.1557,0.1616,0.1659,0.1685,0.1712,0.1755,0.1753,0.1838,0.1817,0.1852,0.189,0.1895,0.1733,0.1732,0.1661,0.1658,0.1949,0.1948,0.1947,0.1946,0,0.1339,0.137,0.138,0.1394,0.1424,0.1463,0.1497,0.1567,0.1616,0.1692,0.1737,0.1764,0.1803,0.1849,0.19,0.1896,0.1985,0.1996,0.1877,0.1868,0.1748,0.1723,0.2034,0.2034,0.2034,0.2034,0.2034,0,0.1341,0.1354,0.1376,0.1388,0.1412,0.1446,0.1508,0.1566,0.1643,0.1683,0.1749,0.1783,0.1833,0.1878,0.1917,0.1902,0.1999,0.1863,0.187,0.1754,0.173,0.1979,0.1971,0.2037,0.2036,0.2036,0.2035,0,0.1323,0.134,0.1351,0.1388,0.1405,0.1431,0.1513,0.1555,0.1655,0.1722,0.1748,0.1814,0.1862,0.19,0.1974,0.1915,0.1941,0.1908,0.1751,0.1732,0.18,0.1794,0.1798,0.1793,0.1789,0.1785,0.1782,0,0.1314,0.1318,0.1348,0.1364,0.1403,0.1441,0.1468,0.1549,0.1604,0.1727,0.1746,0.1813,0.1793,0.1818,0.1764,0.1765,0.1853,0.1606,0.1537,0.1765,0.1773,0.1773,0.1772,0.1428,0.1422,0.1418,0.1414,0,0.1299,0.1322,0.1326,0.1365,0.1402,0.1401,0.1467,0.1495,0.158,0.1631,0.1674,0.1674,0.1665,0.1533,0.1495,0.1487,0.1588,0.1503,0.1821,0.1469,0.1411,0.142,0.1433,0.1373,0.1377,0.138,0.1382,0.1384,0.1292,0.1286,0.1309,0.1348,0.1396,0.1395,0.136,0.1396,0.141,0.1441,0.1503,0.1431,0.1404,0.1219,0.1191,0.1175,0.129,0.1238,0.1256,0.1278,0.1179,0.1111,0.1001,0.1003,0.1004,0.1006,0.1007,0,0.1247,0.126,0.1293,0.1302,0.1327,0.1379,0.1369,0.1296,0.1253,0.1236,0.1212,0.104,0.0922,0.0944,0.0835,0.0805,0.0852,0.0784,0.0851,0.089,0.0926,0.0812,0.0536,0.0535,0.0533,0.0532,0,0,0.1224,0.122,0.1231,0.124,0.1268,0.1236,0.1208,0.1111,0.1052,0.0914,0.0822,0.0816,0.0845,0.0647,0.0636,0.0567,0.0728,0.0541,0.0916,0.1032,0.1066,0.1179,0.1045,0,0,0,0,0]},{"header":{"parameterUnit":"m.s-1","parameterCategory":2,"la1":30.2991,"la2":30.254,"lo1":-89.0895,"lo2":-89.0444,"dy":0.0017,"dx":0.0017,"nx":28,"ny":28,"refTime":"2025-03-25T21:00:00:Z","depth":"2","parameterNumber":3,"parameterNumberName":"V-component_of_CURRENTS"},"data":[0,0,0,0,0,0,0,0,0,0,0,0,0,0,0,0,0,0,0,0,0,0,0,0,0,0,0,0,0,0,0,0,0,0,0,0,0,0,0,0,0,0,0,0,0,0,0,0,0,0,0,0,0,0,0,0,0,0,0.036,0.036,0,0.0391,0.0391,0.0391,0.0383,0.0383,0.0383,0.0383,0.0332,0.0331,0.033,0,0,0,0,0,0,0,0,0,0,0,0,0,0.0291,0.0292,0.0359,0.036,0.0362,0.0391,0.0391,0.0391,0.0383,0.0383,0.0383,0.0383,0.0333,0.0331,0.033,0,0,0,0,0,0,0,0,0,0,0,0,0,0.0315,0.0292,0.0359,0.0367,0.0368,0.0391,0.0391,0.039,0.0383,0.0383,0.0383,0.0383,0.0333,0.0331,0.0329,0.0315,0,0,0.0323,0.0322,0,0,0,0,0,0,0,0,0.0314,0.0317,0.0364,0.0366,0.0368,0.0389,0.0349,0.0364,0.0383,0.037,0.0383,0.0383,0.0348,0.0345,0.0342,0.0313,0.0311,0.0323,0.0321,0.0321,0.032,0,0,0,0,0,0,0,0.0312,0.0315,0.0365,0.0366,0.0368,0.0368,0.0371,0.0351,0.0351,0.0371,0.0373,0.0387,0.0348,0.0344,0.0341,0.031,0.0323,0.0321,0.032,0.0319,0.0262,0.0261,0,0,0,0,0,0,0.0322,0.0314,0.0364,0.0366,0.0348,0.037,0.0373,0.0377,0.0354,0.0353,0.0387,0.0387,0.0348,0.0343,0.0339,0.0313,0.0321,0.0319,0.0317,0.0262,0.0262,0.0261,0,0,0,0,0,0,0.0321,0.0326,0.0363,0.0347,0.0353,0.0372,0.0376,0.0378,0.0373,0.0368,0.0364,0.0382,0.0348,0.0342,0.031,0.0311,0.0318,0.0316,0.0262,0.0262,0.0261,0.0266,0,0,0,0,0,0,0.0318,0.0325,0.0323,0.0347,0.0354,0.0368,0.0377,0.0378,0.0386,0.0385,0.0362,0.0358,0.0347,0.0313,0.0308,0.0308,0.0314,0.0263,0.0262,0.0262,0.0266,0.0266,0.0265,0,0,0,0,0,0.0315,0.0324,0.0322,0.0328,0.0353,0.0368,0.037,0.038,0.0385,0.0376,0.036,0.0359,0.0307,0.0311,0.0305,0.0305,0.0263,0.0262,0.0262,0.0266,0.0266,0.0265,0,0,0,0,0,0,0.0304,0.0326,0.0324,0.034,0.0347,0.0369,0.0375,0.0378,0.036,0.0357,0.0346,0.0339,0.032,0.0306,0.0311,0.0287,0.0288,0.0287,0.0294,0.0293,0.0293,0.0314,0.0312,0,0,0,0,0,0.0299,0.0302,0.0322,0.0333,0.0339,0.0352,0.0359,0.0362,0.036,0.0353,0.034,0.0325,0.0313,0.0297,0.0285,0.026,0.0261,0.0259,0.0259,0.0259,0.0271,0.026,0.026,0.0259,0.0259,0.0259,0,0,0.0305,0.0313,0.0319,0.0329,0.0338,0.0349,0.0354,0.0364,0.0366,0.0349,0.0337,0.0323,0.0308,0.0288,0.0278,0.0274,0.0259,0.0258,0.0258,0.0271,0.026,0.026,0.026,0.0259,0.0259,0.0259,0,0,0.032,0.0317,0.0326,0.0326,0.0337,0.0345,0.0347,0.0358,0.0351,0.0336,0.0332,0.0315,0.029,0.0281,0.0274,0.0261,0.0263,0.0259,0.0266,0.0254,0.0255,0.0255,0.0257,0.0258,0.0252,0.0252,0.0252,0,0.0318,0.0334,0.0331,0.0336,0.0347,0.0345,0.0359,0.035,0.0345,0.0344,0.0331,0.0312,0.0291,0.0283,0.0278,0.0262,0.0261,0.0268,0.0255,0.0255,0.0255,0.0258,0.0258,0.0252,0.0252,0.0252,0.0252,0,0.0345,0.0348,0.0355,0.0358,0.0362,0.0372,0.037,0.0362,0.0356,0.0355,0.0341,0.031,0.0305,0.029,0.0278,0.0272,0.0274,0.0261,0.0258,0.0256,0.0258,0.0259,0.0252,0.0252,0.0252,0.0252,0,0,0.0355,0.0371,0.0368,0.0377,0.0373,0.0387,0.0381,0.0386,0.0397,0.0367,0.038,0.0341,0.0334,0.0326,0.0306,0.0285,0.0277,0.0273,0.0272,0.0281,0.0265,0.0253,0.0252,0.026,0.026,0.026,0.0267,0,0.0371,0.0396,0.0394,0.0414,0.0431,0.0419,0.0425,0.0422,0.041,0.0415,0.0381,0.0383,0.0345,0.0344,0.0317,0.03,0.0279,0.0278,0.0262,0.0263,0.0255,0.0252,0.0254,0.0259,0.0267,0.0267,0.0267,0,0.0388,0.0405,0.0433,0.0455,0.0462,0.0467,0.0481,0.0484,0.0479,0.047,0.0454,0.0442,0.0421,0.0383,0.0341,0.0344,0.0308,0.028,0.028,0.0271,0.0251,0.0262,0.0259,0.0268,0.0268,0.0268,0.0268,0,0.0402,0.0426,0.0455,0.0459,0.0485,0.0489,0.0499,0.0499,0.0511,0.0506,0.0525,0.049,0.0492,0.0435,0.0385,0.0364,0.0343,0.0307,0.0261,0.026,0.0262,0.0261,0.0272,0.0272,0.0272,0.0272,0.0272,0,0.0414,0.0433,0.0464,0.0473,0.0512,0.0516,0.0549,0.0544,0.0557,0.0596,0.0559,0.0586,0.0506,0.0487,0.0416,0.0354,0.0368,0.0271,0.026,0.0263,0.0262,0.0269,0.0268,0.0272,0.0272,0.0272,0.0272,0,0.0418,0.0439,0.0473,0.0505,0.0516,0.054,0.0578,0.0606,0.0614,0.0661,0.0668,0.0664,0.0646,0.0568,0.0494,0.0409,0.034,0.0311,0.0328,0.0317,0.0254,0.0254,0.0253,0.0253,0.0252,0.0252,0.0252,0,0.0432,0.0449,0.049,0.0518,0.0527,0.057,0.0603,0.0621,0.0652,0.072,0.0748,0.0754,0.0766,0.0657,0.0518,0.0396,0.0371,0.0302,0.0248,0.0263,0.0252,0.0252,0.0252,0.0256,0.0255,0.0255,0.0255,0,0.0455,0.0461,0.0494,0.0539,0.0575,0.0633,0.0674,0.0708,0.0758,0.0806,0.0875,0.0894,0.081,0.0694,0.0524,0.0431,0.0317,0.0294,0.0315,0.0255,0.0264,0.0254,0.0254,0.0254,0.0254,0.0254,0.0254,0.0254,0.0474,0.0499,0.0533,0.058,0.062,0.0681,0.0733,0.0788,0.0858,0.0916,0.0948,0.094,0.0833,0.0588,0.0481,0.0331,0.0321,0.0237,0.0238,0.0239,0.0233,0.0241,0.0226,0.0226,0.0226,0.0226,0.0226,0,0.0502,0.053,0.0574,0.0639,0.0683,0.0693,0.0777,0.0817,0.09,0.0925,0.0968,0.0828,0.0726,0.0592,0.0377,0.0261,0.0248,0.0215,0.0227,0.0228,0.023,0.0224,0.0214,0.0213,0.0213,0.0213,0,0,0.0518,0.0562,0.0584,0.0675,0.0716,0.0771,0.0812,0.0865,0.0878,0.0881,0.0846,0.0835,0.0699,0.0538,0.0419,0.0313,0.0285,0.0282,0.0299,0.0328,0.033,0.0247,0.0241,0,0,0,0,0]}],[{"header":{"parameterUnit":"m.s-1","parameterCategory":2,"la1":30.2991,"la2":30.254,"lo1":-89.0895,"lo2":-89.0444,"dy":0.0017,"dx":0.0017,"nx":28,"ny":28,"refTime":"2025-03-25T21:00:00:Z","depth":"4","parameterNumber":2,"parameterNumberName":"U-component_of_CURRENTS"},"data":[0,0,0,0,0,0,0,0,0,0,0,0,0,0,0,0,0,0,0,0,0,0,0,0,0,0,0,0,0,0,0,0,0,0,0,0,0,0,0,0,0,0,0,0,0,0,0,0,0,0,0,0,0,0,0,0,0,0,0.0426,0.0426,0,0.0391,0.039,0.0389,0.0359,0.0359,0.0359,0.0359,0.0375,0.0375,0.0375,0,0,0,0,0,0,0,0,0,0,0,0,0,0.0424,0.0424,0.0426,0.0426,0.0426,0.0391,0.039,0.0389,0.0359,0.0359,0.0359,0.0359,0.0375,0.0375,0.0375,0,0,0,0,0,0,0,0,0,0,0,0,0,0.0404,0.0424,0.0426,0.0412,0.041,0.0391,0.039,0.0388,0.0359,0.0359,0.0359,0.0359,0.0375,0.0375,0.0376,0.0371,0,0,0.0377,0.0377,0,0,0,0,0,0,0,0,0.0406,0.0404,0.0414,0.0413,0.0411,0.0385,0.0395,0.0387,0.0358,0.0372,0.0359,0.036,0.0387,0.0386,0.0369,0.0372,0.0372,0.0377,0.0377,0.0377,0.0377,0,0,0,0,0,0,0,0.0407,0.0405,0.0406,0.0414,0.0412,0.0392,0.0389,0.0392,0.0374,0.0371,0.037,0.0375,0.0386,0.0369,0.037,0.0372,0.0377,0.0377,0.0377,0.0377,0.0476,0.0479,0,0,0,0,0,0,0.0426,0.0406,0.0407,0.0405,0.0416,0.0393,0.0389,0.0388,0.0373,0.0372,0.0375,0.0374,0.0368,0.0369,0.037,0.0413,0.0377,0.0377,0.0377,0.0474,0.0477,0.0479,0,0,0,0,0,0,0.0425,0.0426,0.0409,0.041,0.0408,0.0393,0.0391,0.0387,0.0396,0.0377,0.0376,0.0392,0.0369,0.037,0.0398,0.0412,0.0377,0.0378,0.0471,0.0475,0.0478,0.0467,0,0,0,0,0,0,0.0425,0.0425,0.0429,0.0411,0.0408,0.0415,0.0392,0.0386,0.04,0.0399,0.0391,0.0391,0.0369,0.0398,0.0398,0.0411,0.0378,0.0468,0.0473,0.0477,0.0464,0.047,0.0475,0,0,0,0,0,0.0425,0.0429,0.043,0.043,0.0415,0.0416,0.0412,0.0399,0.0401,0.0407,0.0409,0.0392,0.0428,0.0399,0.0399,0.0413,0.0466,0.0471,0.0477,0.0462,0.0469,0.0475,0,0,0,0,0,0,0.0424,0.0426,0.0427,0.0429,0.0434,0.0414,0.0419,0.0418,0.042,0.0426,0.041,0.041,0.0442,0.0445,0.0414,0.0464,0.045,0.0456,0.0439,0.0446,0.0451,0.0483,0.0378,0,0,0,0,0,0.0429,0.0434,0.0437,0.044,0.045,0.0443,0.0444,0.0439,0.044,0.0441,0.0439,0.045,0.0461,0.0468,0.0477,0.0498,0.051,0.0517,0.0522,0.0526,0.0559,0.0579,0.0588,0.0497,0.0497,0.0497,0,0,0.0432,0.0433,0.0436,0.0442,0.0444,0.0444,0.0443,0.0456,0.0455,0.0445,0.0454,0.0467,0.0475,0.0491,0.0508,0.0496,0.0558,0.0533,0.0535,0.0567,0.0586,0.0594,0.0602,0.0501,0.0501,0.05,0,0,0.0427,0.0444,0.0443,0.0451,0.0466,0.0462,0.0478,0.048,0.0485,0.0502,0.0497,0.0538,0.0539,0.0551,0.0556,0.061,0.0586,0.0608,0.0648,0.0666,0.0673,0.0679,0.0688,0.0695,0.0606,0.0606,0.0606,0,0.0425,0.0426,0.0445,0.0446,0.0453,0.0477,0.0478,0.0484,0.0493,0.0513,0.0514,0.0563,0.0574,0.0603,0.0624,0.062,0.0617,0.0607,0.0668,0.0675,0.0682,0.069,0.0697,0.0606,0.0606,0.0606,0.0606,0,0.0421,0.0423,0.043,0.0435,0.0446,0.046,0.0477,0.0499,0.0522,0.0533,0.0589,0.0611,0.0648,0.0655,0.0654,0.0707,0.0685,0.0666,0.0639,0.0689,0.0695,0.0704,0.0606,0.0606,0.0606,0.0606,0,0,0.0414,0.0421,0.0427,0.0425,0.0447,0.0454,0.0477,0.0507,0.0534,0.0571,0.061,0.0664,0.0702,0.0717,0.0724,0.0754,0.0795,0.0734,0.0735,0.072,0.082,0.0718,0.0717,0.0763,0.0765,0.0766,0.0797,0,0.0405,0.0398,0.0408,0.041,0.0413,0.0445,0.0463,0.0498,0.0537,0.0581,0.0645,0.069,0.0711,0.0738,0.0774,0.0787,0.0821,0.0789,0.0797,0.0799,0.0681,0.0725,0.0773,0.0804,0.0805,0.0807,0.0808,0,0.0403,0.0397,0.0396,0.0402,0.0411,0.0419,0.0472,0.0489,0.0561,0.0598,0.0668,0.0711,0.0788,0.0793,0.0862,0.0828,0.0849,0.0859,0.0859,0.0783,0.0712,0.0753,0.0823,0.0822,0.0821,0.082,0.0819,0,0.0398,0.0393,0.0393,0.0397,0.041,0.0429,0.0446,0.0506,0.0541,0.0621,0.0661,0.0741,0.0792,0.0832,0.0876,0.0867,0.0927,0.0907,0.084,0.0832,0.0916,0.0909,0.0976,0.0976,0.0976,0.0976,0.0976,0,0.0386,0.0385,0.0394,0.0396,0.0414,0.0426,0.0466,0.05,0.0562,0.061,0.0679,0.0725,0.0807,0.0848,0.0878,0.0875,0.0929,0.0871,0.0841,0.091,0.0902,0.092,0.0913,0.0977,0.0977,0.0977,0.0977,0,0.0374,0.0382,0.0382,0.0399,0.0411,0.0428,0.0473,0.05,0.0558,0.062,0.0653,0.0731,0.0774,0.0826,0.0886,0.0867,0.0879,0.0869,0.0939,0.0909,0.0775,0.0768,0.0804,0.0801,0.0798,0.0796,0.0794,0,0.0359,0.036,0.039,0.0397,0.0405,0.0433,0.0456,0.0507,0.0536,0.0616,0.064,0.0708,0.0754,0.0752,0.0802,0.0826,0.0826,0.0821,0.0823,0.0794,0.0762,0.0759,0.0756,0.079,0.0789,0.0788,0.0787,0,0.0327,0.0354,0.0356,0.0374,0.0396,0.0416,0.0447,0.0469,0.0531,0.0592,0.0623,0.0649,0.0681,0.0711,0.0724,0.0746,0.0813,0.0793,0.08,0.0801,0.0777,0.0747,0.0747,0.0778,0.0779,0.078,0.0781,0,0.0312,0.031,0.0324,0.0339,0.0359,0.0373,0.0403,0.0427,0.0466,0.0556,0.0564,0.0618,0.0679,0.0669,0.0682,0.0683,0.0687,0.0671,0.0684,0.0695,0.0642,0.0594,0.053,0,0,0,0,0,0.0292,0.0282,0.028,0.0289,0.0306,0.0324,0.0378,0.041,0.0485,0.0493,0.0528,0.0557,0.0572,0.0594,0.0576,0.0628,0.0683,0.0602,0.067,0.0726,0.0737,0.0682,0,0,0,0,0,0,0.0277,0.0271,0.0263,0.024,0.0238,0.0256,0.0292,0.0346,0.0355,0.0435,0.045,0.0505,0.0532,0.0576,0.056,0.0567,0.0593,0.0638,0.0636,0.072,0.073,0.0739,0.0686,0,0,0,0,0]},{"header":{"parameterUnit":"m.s-1","parameterCategory":2,"la1":30.2991,"la2":30.254,"lo1":-89.0895,"lo2":-89.0444,"dy":0.0017,"dx":0.0017,"nx":28,"ny":28,"refTime":"2025-03-25T21:00:00:Z","depth":"4","parameterNumber":3,"parameterNumberName":"V-component_of_CURRENTS"},"data":[0,0,0,0,0,0,0,0,0,0,0,0,0,0,0,0,0,0,0,0,0,0,0,0,0,0,0,0,0,0,0,0,0,0,0,0,0,0,0,0,0,0,0,0,0,0,0,0,0,0,0,0,0,0,0,0,0,0,0.0376,0.0376,0,0.0404,0.0404,0.0404,0.0439,0.044,0.044,0.0441,0.0481,0.0481,0.0481,0,0,0,0,0,0,0,0,0,0,0,0,0,0.0333,0.0334,0.0376,0.0376,0.0377,0.0404,0.0404,0.0404,0.0439,0.044,0.0441,0.0441,0.048,0.0481,0.0482,0,0,0,0,0,0,0,0,0,0,0,0,0,0.0355,0.0334,0.0376,0.0398,0.04,0.0404,0.0404,0.0405,0.0439,0.044,0.0441,0.0442,0.048,0.0481,0.0482,0.0468,0,0,0.0484,0.0484,0,0,0,0,0,0,0,0,0.0354,0.0356,0.0394,0.0396,0.0399,0.042,0.0404,0.0426,0.0439,0.0423,0.0441,0.0442,0.0461,0.0463,0.0465,0.047,0.0471,0.0484,0.0484,0.0485,0.0485,0,0,0,0,0,0,0,0.0352,0.0355,0.0386,0.0394,0.0397,0.04,0.0404,0.0408,0.0436,0.0425,0.0428,0.0431,0.0462,0.0465,0.0467,0.0472,0.0484,0.0485,0.0485,0.0485,0.0481,0.048,0,0,0,0,0,0,0.035,0.0354,0.0385,0.0387,0.0379,0.04,0.0404,0.0411,0.0436,0.0441,0.0431,0.0433,0.0463,0.0466,0.0468,0.0477,0.0485,0.0485,0.0486,0.0481,0.048,0.048,0,0,0,0,0,0,0.0349,0.0353,0.0384,0.0371,0.0376,0.04,0.0407,0.0411,0.0425,0.0441,0.0446,0.0441,0.0464,0.0467,0.0482,0.0478,0.0486,0.0486,0.0482,0.0481,0.048,0.048,0,0,0,0,0,0,0.0348,0.0352,0.0357,0.0371,0.0377,0.0391,0.0406,0.0411,0.0426,0.0429,0.0451,0.0455,0.0465,0.048,0.0482,0.048,0.0487,0.0483,0.0481,0.048,0.0481,0.048,0.0478,0,0,0,0,0,0.0346,0.0353,0.0357,0.0361,0.0382,0.0391,0.0394,0.0413,0.0425,0.0429,0.0447,0.0455,0.0475,0.0481,0.0483,0.0481,0.0483,0.0482,0.0481,0.0482,0.048,0.0478,0,0,0,0,0,0,0.0341,0.0357,0.0362,0.0375,0.0383,0.0397,0.0404,0.0415,0.0431,0.0437,0.0454,0.0459,0.0468,0.0471,0.0477,0.0473,0.0477,0.0476,0.0477,0.0476,0.0474,0.0474,0.0487,0,0,0,0,0,0.034,0.0351,0.036,0.0372,0.0373,0.0388,0.0395,0.0406,0.0421,0.043,0.0446,0.0456,0.046,0.0468,0.0472,0.0474,0.046,0.047,0.0468,0.0467,0.0467,0.0432,0.0428,0.0476,0.0476,0.0476,0,0,0.0344,0.0353,0.0361,0.0372,0.038,0.0386,0.0395,0.0406,0.0415,0.043,0.045,0.0454,0.0459,0.0463,0.0466,0.0469,0.0447,0.0466,0.0465,0.0465,0.0431,0.0426,0.0422,0.0475,0.0475,0.0475,0,0,0.0355,0.0361,0.0371,0.0374,0.0384,0.0389,0.0393,0.0407,0.0415,0.0427,0.0438,0.0441,0.0454,0.0455,0.0456,0.0447,0.044,0.0447,0.0444,0.0411,0.0407,0.0403,0.0382,0.0377,0.0448,0.0448,0.0448,0,0.0358,0.0373,0.0375,0.0381,0.0389,0.0392,0.0402,0.0404,0.0424,0.0429,0.0433,0.0442,0.0447,0.0447,0.0444,0.0445,0.0429,0.0453,0.0409,0.0405,0.0401,0.0381,0.0375,0.0448,0.0448,0.0448,0.0448,0,0.0372,0.0384,0.0389,0.0399,0.0405,0.0413,0.0414,0.0421,0.0429,0.0432,0.0434,0.0433,0.0441,0.0435,0.044,0.0417,0.0416,0.0411,0.0415,0.0396,0.0376,0.037,0.0447,0.0447,0.0447,0.0447,0,0,0.0373,0.0396,0.0397,0.0408,0.0415,0.0423,0.043,0.0436,0.0444,0.0441,0.0448,0.0439,0.0437,0.0437,0.0436,0.0405,0.0364,0.0398,0.0396,0.0381,0.0296,0.029,0.0282,0.0351,0.0349,0.0348,0.0295,0,0.0383,0.0404,0.0413,0.0434,0.0443,0.0448,0.0458,0.0462,0.046,0.0464,0.0445,0.045,0.0438,0.0444,0.0409,0.0381,0.0346,0.038,0.0314,0.0312,0.0311,0.0274,0.0344,0.029,0.0288,0.0287,0.0287,0,0.0386,0.0403,0.0429,0.0457,0.0462,0.0478,0.0493,0.0502,0.0496,0.0494,0.0482,0.0472,0.0443,0.0429,0.0356,0.0378,0.0336,0.0303,0.03,0.029,0.0293,0.031,0.0275,0.0276,0.0276,0.0277,0.0278,0,0.0382,0.0412,0.0439,0.0446,0.0475,0.0493,0.0511,0.0515,0.0524,0.0516,0.0517,0.048,0.0467,0.0402,0.0339,0.0345,0.0249,0.025,0.0202,0.0202,0.0226,0.023,0.0182,0.0182,0.0182,0.0182,0.0182,0,0.0383,0.0403,0.0443,0.0455,0.0491,0.0507,0.0538,0.0545,0.0555,0.0561,0.0537,0.0524,0.0455,0.0397,0.0336,0.0248,0.0243,0.0192,0.018,0.0228,0.0233,0.0221,0.0227,0.018,0.0181,0.0181,0.0181,0,0.0374,0.04,0.0431,0.0474,0.0492,0.0517,0.0566,0.0583,0.0589,0.0595,0.0595,0.0552,0.0478,0.0403,0.03,0.0249,0.0167,0.0135,0.0197,0.0191,0.0145,0.0151,0.0077,0.0076,0.0076,0.0075,0.0074,0,0.0373,0.039,0.0444,0.047,0.0496,0.0539,0.0572,0.06,0.0613,0.0605,0.0603,0.0545,0.0505,0.0353,0.0276,0.0157,0.0139,0.01,0.0113,0.0134,0.013,0.0138,0.0144,0.0073,0.0073,0.0073,0.0073,0,0.037,0.0393,0.0419,0.0473,0.0517,0.0562,0.0606,0.0617,0.0638,0.0643,0.0598,0.053,0.0445,0.0343,0.0252,0.0166,0.0128,0.0092,0.0093,0.0105,0.0129,0.0127,0.0135,0.007,0.0071,0.0071,0.0071,0,0.0366,0.0383,0.0423,0.0469,0.0523,0.0566,0.0594,0.061,0.0626,0.0615,0.0595,0.0514,0.0471,0.0346,0.0259,0.0178,0.016,0.0133,0.0132,0.0133,0.0167,0.0207,0.0152,0,0,0,0,0,0.0358,0.0378,0.0418,0.0466,0.0519,0.0554,0.0606,0.0629,0.0645,0.0613,0.0606,0.0527,0.04,0.0346,0.0262,0.0248,0.0148,0.0147,0.0118,0.0057,0.006,0.0089,0,0,0,0,0,0,0.0351,0.0386,0.0407,0.0455,0.0488,0.0548,0.0584,0.0601,0.0582,0.0584,0.0516,0.0495,0.0373,0.044,0.0253,0.0231,0.0199,0.0094,0.0092,0.0055,0.0058,0.006,0.0091,0,0,0,0,0]}]]